Weather History for KTCC - January, 2014

Change the Weather History Date:

Wednesday, January 15, 2014

  Actual Average Record
Temperature  
Mean Temperature 40 °F -  
Max Temperature 60 °F 55 °F 79 °F (1914)
Min Temperature 19 °F 24 °F -2 °F (1905)
Degree Days  
Heating Degree Days 26    
Moisture  
Dew Point 16 °F    
Average Humidity 45    
Maximum Humidity 74    
Minimum Humidity 20    
Precipitation  
Precipitation 0.00 in - - ()
Sea Level Pressure  
Sea Level Pressure 30.18 in    
Wind  
Wind Speed 9 mph (WSW)    
Max Wind Speed 17 mph    
Max Gust Speed -    
Visibility 10 miles    
Events      
Averages and records for this station are not official NWS values.
T = Trace of Precipitation, MM = Missing Value Source: NWS Daily Summary

Daily Weather History Graph

Daily Weather History Graph

Search for Another Location

Airport or City:

Trip Planner

Search our weather history database for the weather conditions in past years. The results will help you decide how hot, cold, wet, or windy it might be!

Date:

Astronomy

Jan. 15, 2014 Rise Set
Actual Time 7:02 AM MST 5:05 PM MST
Civil Twilight 6:34 AM MST 5:33 PM MST
Nautical Twilight 6:03 AM MST 6:04 PM MST
Astronomical Twilight 5:33 AM MST 6:34 PM MST
Moon 5:03 PM MST (1/15) 6:21 AM MST (1/15)
Length of Visible Light 10h 58m
Length of Day
10h 03m
Full, 100% of the Moon is Illuminated
Jan 15
Full
Jan 15
Full
Jan 23
Last Quarter
Jan 30
New
Feb 6
First Quarter

Hourly Weather History & Observations

Time (MST) Temp. Windchill Dew Point Humidity Pressure Visibility Wind Dir Wind Speed Gust Speed Precip Events Conditions
12:53 AM 27.0 °F 19.5 °F 17.1 °F 66% 30.40 in 10.0 mi West 6.9 mph - N/A   Clear
1:53 AM 24.1 °F 14.4 °F 15.1 °F 69% 30.40 in 10.0 mi WSW 9.2 mph - N/A   Clear
2:53 AM 25.0 °F 15.5 °F 15.1 °F 66% 30.39 in 10.0 mi West 9.2 mph - N/A   Clear
3:53 AM 21.9 °F 11.0 °F 14.0 °F 72% 30.39 in 10.0 mi SW 10.4 mph - N/A   Clear
4:53 AM 21.9 °F - 12.9 °F 68% 30.39 in 10.0 mi Calm Calm - N/A   Clear
5:53 AM 19.0 °F 10.0 °F 12.0 °F 74% 30.39 in 10.0 mi West 6.9 mph - N/A   Clear
6:53 AM 23.0 °F 13.1 °F 14.0 °F 68% 30.35 in 10.0 mi WSW 9.2 mph - N/A   Clear
7:53 AM 30.0 °F 21.7 °F 19.0 °F 64% 30.33 in 10.0 mi SW 9.2 mph - N/A   Clear
8:53 AM 36.0 °F 26.7 °F 19.9 °F 52% 30.32 in 10.0 mi SW 15.0 mph - N/A   Clear
9:53 AM 41.0 °F 32.5 °F 19.9 °F 43% 30.29 in 10.0 mi SW 17.3 mph - N/A   Clear
10:53 AM 46.9 °F - 19.9 °F 34% 30.24 in 10.0 mi SW 16.1 mph - N/A   Clear
11:53 AM 50.0 °F - 19.0 °F 29% 30.18 in 10.0 mi SSW 10.4 mph - N/A   Clear
12:53 PM 53.1 °F - 19.0 °F 26% 30.11 in 10.0 mi SSW 9.2 mph - N/A   Clear
1:53 PM 57.0 °F - 16.0 °F 20% 30.07 in 10.0 mi SW 11.5 mph - N/A   Clear
2:53 PM 57.9 °F - 18.0 °F 21% 30.04 in 10.0 mi SW 10.4 mph - N/A   Clear
3:53 PM 60.1 °F - 18.0 °F 20% 30.02 in 10.0 mi SW 10.4 mph - N/A   Clear
4:53 PM 55.9 °F - 18.0 °F 23% 30.01 in 10.0 mi SW 9.2 mph - N/A   Clear
5:53 PM 48.0 °F - 17.1 °F 29% 30.03 in 10.0 mi SW 9.2 mph - N/A   Clear
6:53 PM 39.0 °F - 14.0 °F 36% 30.04 in 10.0 mi Calm Calm - N/A   Clear
7:53 PM 42.1 °F 37.1 °F 16.0 °F 35% 30.00 in 10.0 mi WSW 8.1 mph - N/A   Clear
8:53 PM 39.0 °F 35.7 °F 14.0 °F 36% 30.01 in 10.0 mi West 4.6 mph - N/A   Clear
9:53 PM 36.0 °F 30.3 °F 14.0 °F 41% 30.00 in 10.0 mi West 6.9 mph - N/A   Clear
10:53 PM 37.9 °F 30.5 °F 16.0 °F 41% 29.99 in 10.0 mi WNW 11.5 mph - N/A   Clear
11:53 PM 36.0 °F 30.3 °F 15.1 °F 43% 30.00 in 10.0 mi WNW 6.9 mph - N/A   Clear